| time (UTC) | temp F | wind direction | speed knots | gust knots | rain 1hr in | rain 24hr in | rain mn in | humidity % | barometer mb |
| 20260508091025 | 59 | 299 | 4.3 | 8.7 | 0.00 | 0.00 | 0.00 | 65 | 1010.9 |
| 20260508090525 | 58 | 292 | 3.5 | 7.8 | 0.00 | 0.00 | 0.00 | 68 | 1011.1 |
| 20260508090058 | 58 | 292 | 3.5 | 7.8 | 0.00 | 0.00 | 0.00 | 68 | 1011.0 |
| 20260508085526 | 57 | 279 | 3.5 | 8.7 | 0.00 | 0.00 | 0.00 | 68 | 1011.1 |
| 20260508085027 | 57 | 293 | 3.5 | 8.7 | 0.00 | 0.00 | 0.00 | 69 | 1011.0 |
| 20260508084543 | 57 | 282 | 3.5 | 8.7 | 0.00 | 0.00 | 0.00 | 68 | 1010.9 |
| 20260508084029 | 57 | 259 | 4.3 | 7.8 | 0.00 | 0.00 | 0.00 | 67 | 1010.8 |
| 20260508083528 | 57 | 309 | 1.7 | 7.0 | 0.00 | 0.00 | 0.00 | 71 | 1010.8 |
| 20260508083044 | 56 | 271 | 2.6 | 7.0 | 0.00 | 0.00 | 0.00 | 72 | 1010.9 |
| 20260508082529 | 56 | 0 | 3.5 | 7.0 | 0.00 | 0.00 | 0.00 | 72 | 1010.9 |
| 20260508082028 | 56 | 293 | 2.6 | 7.0 | 0.00 | 0.00 | 0.00 | 73 | 1010.8 |
| 20260508081544 | 55 | 182 | 1.7 | 6.1 | 0.00 | 0.00 | 0.00 | 73 | 1010.8 |
| 20260508081401 | 55 | 280 | 1.7 | 7.0 | 0.00 | 0.00 | 0.00 | 73 | 1010.7 |
| 20260508080040 | 55 | 277 | 2.6 | 7.8 | 0.00 | 0.00 | 0.00 | 74 | 1010.6 |
| 20260508075526 | 55 | 0 | 2.6 | 7.8 | 0.00 | 0.00 | 0.00 | 74 | 1010.6 |
| 20260508075025 | 55 | 244 | 3.5 | 7.0 | 0.00 | 0.00 | 0.00 | 75 | 1010.5 |
| 20260508074543 | 55 | 244 | 2.6 | 7.8 | 0.00 | 0.00 | 0.00 | 75 | 1010.6 |
| 20260508074028 | 55 | 233 | 0.9 | 7.8 | 0.00 | 0.00 | 0.00 | 75 | 1010.6 |
| 20260508073527 | 55 | 280 | 2.6 | 7.8 | 0.00 | 0.00 | 0.00 | 75 | 1010.5 |
| 20260508073043 | 55 | 264 | 3.5 | 10.4 | 0.00 | 0.00 | 0.00 | 75 | 1010.5 |
| 20260508072530 | 55 | 258 | 4.3 | 10.4 | 0.00 | 0.00 | 0.00 | 75 | 1010.5 |
| 20260508072029 | 55 | 241 | 2.6 | 8.7 | 0.00 | 0.00 | 0.00 | 75 | 1010.6 |
| 20260508071554 | 55 | 265 | 3.5 | 7.8 | 0.00 | 0.00 | 0.00 | 74 | 1010.4 |
| 20260508071031 | 55 | 316 | 1.7 | 7.8 | 0.00 | 0.00 | 0.00 | 73 | 1010.3 |
| 20260508070527 | 55 | 166 | 0.9 | 7.0 | 0.00 | 0.00 | 0.00 | 74 | 1010.3 |
| 20260508070053 | 55 | 269 | 2.6 | 5.2 | 0.00 | 0.00 | 0.00 | 74 | 1010.3 |
| 20260508065526 | 55 | 292 | 1.7 | 5.2 | 0.00 | 0.00 | 0.00 | 75 | 1010.1 |
| 20260508065026 | 55 | 0 | 0.9 | 2.6 | 0.00 | 0.00 | 0.00 | 75 | 1010.0 |
| 20260508064547 | 54 | 0 | 0.0 | 2.6 | 0.00 | 0.00 | 0.00 | 74 | 1010.0 |
| 20260508064025 | 54 | 0 | 0.0 | 1.7 | 0.00 | 0.00 | 0.00 | 74 | 1009.8 |
| 20260508063525 | 54 | 0 | 0.0 | 0.0 | 0.00 | 0.00 | 0.00 | 75 | 1009.9 |
| 20260508063045 | 54 | 0 | 0.0 | 0.9 | 0.00 | 0.00 | 0.00 | 75 | 1009.9 |
| 20260508062524 | 54 | 0 | 0.0 | 2.6 | 0.00 | 0.00 | 0.00 | 75 | 1009.8 |
| 20260508062025 | 54 | 0 | 0.0 | 3.5 | 0.00 | 0.00 | 0.00 | 76 | 1009.6 |
| 20260508061543 | 53 | 0 | 0.0 | 3.5 | 0.00 | 0.00 | 0.00 | 76 | 1009.8 |
| 20260508061026 | 53 | 0 | 0.9 | 3.5 | 0.00 | 0.00 | 0.00 | 76 | 1009.6 |
| 20260508060527 | 53 | 0 | 0.0 | 1.7 | 0.00 | 0.00 | 0.00 | 76 | 1009.5 |
| 20260508060047 | 53 | 0 | 0.0 | 1.7 | 0.00 | 0.00 | 0.00 | 75 | 1009.4 |
| 20260508055525 | 53 | 0 | 0.0 | 0.0 | 0.00 | 0.00 | 0.00 | 75 | 1009.3 |
| 20260508055025 | 53 | 0 | 0.0 | 0.9 | 0.00 | 0.00 | 0.00 | 75 | 1009.3 |
| 20260508054547 | 53 | 0 | 0.0 | 0.9 | 0.00 | 0.00 | 0.00 | 75 | 1009.3 |
| 20260508054025 | 54 | 0 | 0.0 | 0.9 | 0.00 | 0.00 | 0.00 | 75 | 1009.2 |
| 20260508053528 | 54 | 0 | 0.0 | 0.9 | 0.00 | 0.00 | 0.00 | 75 | 1009.1 |
| 20260508053101 | 53 | 0 | 0.0 | 0.9 | 0.00 | 0.00 | 0.00 | 75 | 1009.1 |
| 20260508052524 | 53 | 0 | 0.0 | 0.9 | 0.00 | 0.00 | 0.00 | 75 | 1009.1 |
| 20260508052024 | 53 | 0 | 0.0 | 2.6 | 0.00 | 0.00 | 0.00 | 75 | 1009.2 |
| 20260508051541 | 53 | 0 | 0.0 | 3.5 | 0.00 | 0.00 | 0.00 | 75 | 1009.1 |
| 20260508051025 | 53 | 192 | 1.7 | 3.5 | 0.00 | 0.00 | 0.00 | 75 | 1009.1 |
| 20260508050524 | 53 | 0 | 0.0 | 0.0 | 0.00 | 0.00 | 0.00 | 75 | 1008.9 |
| 20260508050041 | 53 | 0 | 0.0 | 1.7 | 0.00 | 0.00 | 0.00 | 75 | 1008.8 |
| 20260508045528 | 54 | 0 | 0.0 | 1.7 | 0.00 | 0.00 | 0.00 | 75 | 1008.9 |
| 20260508045024 | 54 | 192 | 0.0 | 2.6 | 0.00 | 0.00 | 0.00 | 75 | 1009.0 |
| 20260508044538 | 54 | 0 | 0.0 | 2.6 | 0.00 | 0.00 | 0.00 | 75 | 1008.9 |
| 20260508044027 | 54 | 192 | 0.9 | 2.6 | 0.00 | 0.00 | 0.00 | 73 | 1008.9 |
| 20260508043527 | 54 | 0 | 0.0 | 2.6 | 0.00 | 0.00 | 0.00 | 73 | 1008.9 |
| 20260508043040 | 54 | 0 | 0.0 | 0.0 | 0.00 | 0.00 | 0.00 | 73 | 1008.9 |
| 20260508042527 | 54 | 0 | 0.0 | 1.7 | 0.00 | 0.00 | 0.00 | 73 | 1008.8 |
| 20260508042026 | 54 | 0 | 0.0 | 2.6 | 0.00 | 0.00 | 0.00 | 74 | 1008.8 |
| 20260508041606 | 54 | 0 | 0.0 | 2.6 | 0.00 | 0.00 | 0.00 | 74 | 1008.9 |
| 20260508041027 | 54 | 185 | 0.9 | 2.6 | 0.00 | 0.00 | 0.00 | 74 | 1008.9 |
| 20260508040525 | 54 | 182 | 0.0 | 1.7 | 0.00 | 0.00 | 0.00 | 74 | 1009.0 |
| 20260508040105 | 54 | 0 | 0.0 | 0.0 | 0.00 | 0.00 | 0.00 | 74 | 1008.9 |
| 20260508035524 | 54 | 0 | 0.0 | 0.9 | 0.00 | 0.00 | 0.00 | 74 | 1008.8 |
| 20260508035027 | 54 | 0 | 0.0 | 2.6 | 0.00 | 0.00 | 0.00 | 74 | 1008.9 |
| 20260508034539 | 54 | 182 | 0.0 | 3.5 | 0.00 | 0.00 | 0.00 | 74 | 1008.8 |
| 20260508034025 | 54 | 182 | 1.7 | 3.5 | 0.00 | 0.00 | 0.00 | 74 | 1008.6 |
| 20260508033524 | 54 | 186 | 1.7 | 4.3 | 0.00 | 0.00 | 0.00 | 75 | 1008.8 |
| 20260508033040 | 54 | 178 | 1.7 | 4.3 | 0.00 | 0.00 | 0.00 | 74 | 1008.6 |
| 20260508032527 | 54 | 204 | 1.7 | 3.5 | 0.00 | 0.00 | 0.00 | 74 | 1008.7 |
| 20260508032026 | 54 | 315 | 0.9 | 2.6 | 0.00 | 0.00 | 0.00 | 74 | 1008.6 |
| 20260508031540 | 54 | 0 | 0.0 | 0.0 | 0.00 | 0.00 | 0.00 | 74 | 1008.5 |
| 20260508031028 | 54 | 0 | 0.0 | 0.0 | 0.00 | 0.00 | 0.00 | 74 | 1008.3 |
| 20260508030530 | 54 | 0 | 0.0 | 1.7 | 0.00 | 0.00 | 0.00 | 74 | 1008.3 |
| 20260508030038 | 54 | 0 | 0.0 | 1.7 | 0.00 | 0.00 | 0.00 | 74 | 1008.3 |
| 20260508025527 | 54 | 0 | 0.0 | 1.7 | 0.00 | 0.00 | 0.00 | 74 | 1008.4 |
| 20260508025027 | 54 | 0 | 0.0 | 2.6 | 0.00 | 0.00 | 0.00 | 74 | 1008.3 |
| 20260508024543 | 54 | 0 | 0.0 | 2.6 | 0.00 | 0.00 | 0.00 | 74 | 1008.5 |
| 20260508024029 | 54 | 0 | 0.0 | 2.6 | 0.00 | 0.00 | 0.00 | 74 | 1008.4 |
| 20260508023532 | 54 | 0 | 0.0 | 2.6 | 0.00 | 0.00 | 0.00 | 73 | 1008.4 |
| 20260508023038 | 55 | 317 | 0.9 | 2.6 | 0.00 | 0.00 | 0.00 | 73 | 1008.5 |
| 20260508022527 | 55 | 0 | 0.0 | 2.6 | 0.00 | 0.00 | 0.00 | 73 | 1008.5 |
| 20260508022027 | 55 | 0 | 0.0 | 2.6 | 0.00 | 0.00 | 0.00 | 73 | 1008.2 |
| 20260508021544 | 55 | 0 | 0.0 | 2.6 | 0.00 | 0.00 | 0.00 | 72 | 1008.3 |
| 20260508021028 | 55 | 0 | 0.9 | 2.6 | 0.00 | 0.00 | 0.00 | 72 | 1008.4 |
| 20260508020528 | 55 | 323 | 0.0 | 1.7 | 0.00 | 0.00 | 0.00 | 72 | 1008.6 |
| 20260508020048 | 55 | 0 | 0.0 | 3.5 | 0.00 | 0.00 | 0.00 | 72 | 1008.7 |
| 20260508015528 | 56 | 0 | 0.9 | 3.5 | 0.00 | 0.00 | 0.00 | 71 | 1008.8 |
| 20260508015028 | 56 | 324 | 0.0 | 2.6 | 0.00 | 0.00 | 0.00 | 71 | 1008.7 |
| 20260508014539 | 56 | 325 | 0.9 | 2.6 | 0.00 | 0.00 | 0.00 | 71 | 1008.5 |
| 20260508014028 | 56 | 324 | 0.0 | 2.6 | 0.00 | 0.00 | 0.00 | 71 | 1008.6 |
| 20260508013530 | 56 | 323 | 0.0 | 3.5 | 0.00 | 0.00 | 0.00 | 71 | 1008.8 |
| 20260508013039 | 56 | 0 | 0.9 | 5.2 | 0.00 | 0.00 | 0.00 | 71 | 1008.7 |
| 20260508012527 | 56 | 360 | 0.0 | 8.7 | 0.00 | 0.00 | 0.00 | 70 | 1008.6 |
| 20260508012027 | 56 | 271 | 2.6 | 8.7 | 0.00 | 0.00 | 0.00 | 70 | 1008.8 |
| 20260508011554 | 57 | 264 | 3.5 | 8.7 | 0.00 | 0.00 | 0.00 | 70 | 1009.1 |
| 20260508011027 | 57 | 241 | 2.6 | 8.7 | 0.00 | 0.00 | 0.00 | 70 | 1009.1 |
| 20260508010527 | 57 | 0 | 0.0 | 7.0 | 0.00 | 0.00 | 0.00 | 69 | 1008.9 |
| 20260508010043 | 57 | 0 | 0.9 | 7.8 | 0.00 | 0.00 | 0.00 | 68 | 1008.8 |
| 20260508005527 | 57 | 256 | 3.5 | 9.6 | 0.00 | 0.00 | 0.00 | 68 | 1009.1 |
| 20260508005030 | 58 | 223 | 5.2 | 9.6 | 0.00 | 0.00 | 0.00 | 67 | 1009.1 |
| 20260508004543 | 58 | 247 | 4.3 | 8.7 | 0.00 | 0.00 | 0.00 | 67 | 1009.3 |
| 20260508004027 | 58 | 261 | 2.6 | 7.0 | 0.00 | 0.00 | 0.00 | 67 | 1009.3 |
| 20260508003527 | 58 | 238 | 2.6 | 6.1 | 0.00 | 0.00 | 0.00 | 67 | 1009.2 |
| 20260508003046 | 58 | 239 | 1.7 | 4.3 | 0.00 | 0.00 | 0.00 | 67 | 1009.2 |
| 20260508002527 | 58 | 259 | 0.0 | 3.5 | 0.00 | 0.00 | 0.00 | 67 | 1009.3 |
| 20260508002029 | 59 | 0 | 0.0 | 2.6 | 0.00 | 0.00 | 0.00 | 67 | 1009.3 |
| 20260508001549 | 59 | 271 | 0.0 | 2.6 | 0.00 | 0.00 | 0.00 | 66 | 1009.4 |
| 20260508001027 | 59 | 271 | 0.0 | 3.5 | 0.00 | 0.00 | 0.00 | 66 | 1009.4 |
| 20260508000528 | 59 | 0 | 0.0 | 3.5 | 0.00 | 0.00 | 0.00 | 65 | 1009.4 |
| 20260508000043 | 59 | 0 | 0.0 | 2.6 | 0.00 | 0.00 | 0.00 | 65 | 1009.5 |
| 20260507235528 | 59 | 275 | 1.7 | 2.6 | 0.00 | 0.00 | 0.00 | 65 | 1009.6 |
| 20260507235027 | 59 | 275 | 0.9 | 3.5 | 0.00 | 0.00 | 0.00 | 64 | 1009.6 |
| 20260507234541 | 59 | 0 | 1.7 | 3.5 | 0.00 | 0.00 | 0.00 | 64 | 1009.6 |
| 20260507234027 | 60 | 278 | 0.0 | 2.6 | 0.00 | 0.00 | 0.00 | 64 | 1009.7 |
| 20260507233528 | 59 | 0 | 0.0 | 0.0 | 0.00 | 0.00 | 0.00 | 63 | 1009.6 |
| 20260507233055 | 60 | 0 | 0.0 | 1.7 | 0.00 | 0.00 | 0.00 | 64 | 1009.7 |
| 20260507232528 | 59 | 0 | 0.0 | 2.6 | 0.00 | 0.00 | 0.00 | 64 | 1009.9 |
| 20260507232026 | 60 | 276 | 0.9 | 2.6 | 0.00 | 0.00 | 0.00 | 64 | 1009.8 |
| 20260507231540 | 60 | 279 | 0.9 | 2.6 | 0.00 | 0.00 | 0.00 | 63 | 1009.7 |
| 20260507231028 | 60 | 0 | 0.0 | 0.9 | 0.00 | 0.00 | 0.00 | 63 | 1009.6 |
| 20260507230528 | 60 | 0 | 0.0 | 1.7 | 0.00 | 0.00 | 0.00 | 63 | 1009.6 |
| 20260507230040 | 60 | 0 | 0.0 | 1.7 | 0.00 | 0.00 | 0.00 | 63 | 1009.6 |
| 20260507225529 | 60 | 285 | 0.0 | 1.7 | 0.00 | 0.00 | 0.00 | 63 | 1009.6 |
| 20260507225029 | 60 | 285 | 0.0 | 2.6 | 0.00 | 0.00 | 0.00 | 63 | 1009.6 |
| 20260507224554 | 60 | 0 | 0.9 | 2.6 | 0.00 | 0.00 | 0.00 | 63 | 1009.7 |
| 20260507224027 | 60 | 285 | 0.9 | 2.6 | 0.00 | 0.00 | 0.00 | 63 | 1009.6 |
| 20260507223529 | 60 | 286 | 0.0 | 3.5 | 0.00 | 0.00 | 0.00 | 62 | 1009.6 |
| 20260507223044 | 60 | 0 | 0.9 | 5.2 | 0.00 | 0.00 | 0.00 | 62 | 1009.6 |
| 20260507222530 | 60 | 284 | 1.7 | 6.1 | 0.00 | 0.00 | 0.00 | 62 | 1009.7 |
| 20260507222028 | 60 | 285 | 2.6 | 7.0 | 0.00 | 0.00 | 0.00 | 62 | 1009.7 |
| 20260507221539 | 61 | 288 | 2.6 | 7.0 | 0.00 | 0.00 | 0.00 | 61 | 1009.7 |
| 20260507221027 | 61 | 288 | 2.6 | 7.0 | 0.00 | 0.00 | 0.00 | 61 | 1009.7 |
| 20260507220531 | 61 | 279 | 2.6 | 7.8 | 0.00 | 0.00 | 0.00 | 60 | 1009.8 |
| 20260507220039 | 61 | 273 | 4.3 | 8.7 | 0.00 | 0.00 | 0.00 | 60 | 1009.9 |
| 20260507215531 | 61 | 275 | 4.3 | 9.6 | 0.00 | 0.00 | 0.00 | 60 | 1009.8 |
| 20260507215028 | 61 | 269 | 3.5 | 9.6 | 0.00 | 0.00 | 0.00 | 58 | 1009.6 |
| 20260507214546 | 61 | 288 | 6.1 | 9.6 | 0.00 | 0.00 | 0.00 | 58 | 1009.7 |
| 20260507214031 | 61 | 280 | 4.3 | 7.8 | 0.00 | 0.00 | 0.00 | 57 | 1009.7 |
| 20260507213527 | 61 | 290 | 0.9 | 7.0 | 0.00 | 0.00 | 0.00 | 55 | 1009.8 |
| 20260507213059 | 61 | 242 | 0.9 | 7.0 | 0.00 | 0.00 | 0.00 | 54 | 1009.7 |
| 20260507212527 | 62 | 284 | 1.7 | 6.1 | 0.00 | 0.00 | 0.00 | 53 | 1009.7 |
| 20260507212027 | 62 | 275 | 1.7 | 6.1 | 0.00 | 0.00 | 0.00 | 52 | 1009.5 |
| 20260507211542 | 62 | 252 | 1.7 | 6.1 | 0.00 | 0.00 | 0.00 | 51 | 1009.6 |
| 20260507211030 | 62 | 242 | 1.7 | 6.1 | 0.00 | 0.00 | 0.00 | 51 | 1009.7 |
| 20260507210530 | 62 | 0 | 1.7 | 4.3 | 0.00 | 0.00 | 0.00 | 51 | 1009.5 |
| 20260507210048 | 62 | 245 | 1.7 | 6.1 | 0.00 | 0.00 | 0.00 | 51 | 1009.4 |
| 20260507205527 | 62 | 247 | 1.7 | 6.1 | 0.00 | 0.00 | 0.00 | 50 | 1009.3 |
| 20260507205027 | 62 | 259 | 1.7 | 4.3 | 0.00 | 0.00 | 0.00 | 50 | 1009.3 |
| 20260507204539 | 63 | 254 | 0.0 | 4.3 | 0.00 | 0.00 | 0.00 | 49 | 1009.1 |
| 20260507204028 | 63 | 256 | 0.9 | 3.5 | 0.00 | 0.00 | 0.00 | 49 | 1009.1 |
| 20260507203528 | 63 | 261 | 0.9 | 4.3 | 0.00 | 0.00 | 0.00 | 49 | 1008.9 |
| 20260507203047 | 63 | 267 | 1.7 | 4.3 | 0.00 | 0.00 | 0.00 | 49 | 1008.8 |
| 20260507202527 | 63 | 242 | 1.7 | 4.3 | 0.00 | 0.00 | 0.00 | 49 | 1008.6 |
| 20260507202029 | 63 | 246 | 1.7 | 3.5 | 0.00 | 0.00 | 0.00 | 48 | 1008.6 |
| 20260507201546 | 64 | 234 | 1.7 | 3.5 | 0.00 | 0.00 | 0.00 | 48 | 1008.6 |
| 20260507201028 | 64 | 258 | 0.9 | 2.6 | 0.00 | 0.00 | 0.00 | 48 | 1008.5 |
| 20260507200527 | 64 | 265 | 0.9 | 3.5 | 0.00 | 0.00 | 0.00 | 47 | 1008.4 |
| 20260507200046 | 64 | 265 | 0.9 | 3.5 | 0.00 | 0.00 | 0.00 | 47 | 1008.4 |
| 20260507195528 | 64 | 0 | 0.9 | 3.5 | 0.00 | 0.00 | 0.00 | 47 | 1008.3 |
| 20260507195028 | 65 | 269 | 0.9 | 2.6 | 0.00 | 0.00 | 0.00 | 46 | 1008.3 |
| 20260507194610 | 65 | 0 | 0.9 | 2.6 | 0.00 | 0.00 | 0.00 | 46 | 1008.2 |
| 20260507194027 | 65 | 271 | 0.0 | 2.6 | 0.00 | 0.00 | 0.00 | 46 | 1008.2 |
| 20260507193528 | 66 | 0 | 0.0 | 1.7 | 0.00 | 0.00 | 0.00 | 45 | 1008.1 |
| 20260507193042 | 66 | 0 | 0.0 | 7.8 | 0.00 | 0.00 | 0.00 | 45 | 1008.1 |
| 20260507192528 | 66 | 0 | 0.0 | 7.8 | 0.00 | 0.00 | 0.00 | 45 | 1008.1 |
| 20260507192026 | 66 | 252 | 1.7 | 7.8 | 0.00 | 0.00 | 0.00 | 45 | 1008.1 |
| 20260507191550 | 67 | 288 | 2.6 | 7.8 | 0.00 | 0.00 | 0.00 | 44 | 1008.0 |
| 20260507191027 | 67 | 278 | 1.7 | 7.0 | 0.00 | 0.00 | 0.00 | 44 | 1007.9 |
| 20260507190527 | 67 | 294 | 2.6 | 7.8 | 0.00 | 0.00 | 0.00 | 44 | 1007.9 |
| 20260507190052 | 67 | 292 | 4.3 | 8.7 | 0.00 | 0.00 | 0.00 | 43 | 1007.9 |
| 20260507185528 | 68 | 288 | 4.3 | 9.6 | 0.00 | 0.00 | 0.00 | 43 | 1007.7 |
| 20260507185027 | 68 | 269 | 3.5 | 9.6 | 0.00 | 0.00 | 0.00 | 43 | 1007.6 |
| 20260507184543 | 68 | 299 | 5.2 | 9.6 | 0.00 | 0.00 | 0.00 | 42 | 1007.6 |
| 20260507184027 | 69 | 293 | 4.3 | 9.6 | 0.00 | 0.00 | 0.00 | 42 | 1007.5 |
| 20260507183527 | 69 | 292 | 6.1 | 9.6 | 0.00 | 0.00 | 0.00 | 42 | 1007.4 |
| 20260507183045 | 69 | 293 | 5.2 | 9.6 | 0.00 | 0.00 | 0.00 | 41 | 1007.4 |
| 20260507182527 | 70 | 257 | 2.6 | 10.4 | 0.00 | 0.00 | 0.00 | 41 | 1007.4 |
| 20260507182028 | 69 | 269 | 5.2 | 12.2 | 0.00 | 0.00 | 0.00 | 41 | 1007.3 |
| 20260507181541 | 69 | 305 | 6.1 | 12.2 | 0.00 | 0.00 | 0.00 | 41 | 1007.4 |
| 20260507181028 | 70 | 277 | 6.1 | 12.2 | 0.00 | 0.00 | 0.00 | 41 | 1007.4 |
| 20260507180528 | 70 | 261 | 6.1 | 10.4 | 0.00 | 0.00 | 0.00 | 41 | 1007.3 |
| 20260507180040 | 70 | 300 | 5.2 | 13.0 | 0.00 | 0.00 | 0.00 | 41 | 1007.3 |
| 20260507175530 | 70 | 271 | 7.0 | 14.8 | 0.00 | 0.00 | 0.00 | 40 | 1007.2 |
| 20260507175029 | 70 | 318 | 8.7 | 14.8 | 0.00 | 0.00 | 0.00 | 40 | 1007.2 |
| 20260507174556 | 71 | 289 | 7.0 | 12.2 | 0.00 | 0.00 | 0.00 | 40 | 1007.3 |
| 20260507174028 | 71 | 339 | 6.1 | 14.8 | 0.00 | 0.00 | 0.00 | 40 | 1007.2 |
| 20260507173527 | 71 | 304 | 6.1 | 14.8 | 0.00 | 0.00 | 0.00 | 40 | 1007.3 |
| 20260507173116 | 71 | 281 | 6.1 | 14.8 | 0.00 | 0.00 | 0.00 | 40 | 1007.3 |
| 20260507172527 | 71 | 263 | 6.1 | 11.3 | 0.00 | 0.00 | 0.00 | 40 | 1007.3 |
| 20260507172028 | 71 | 257 | 3.5 | 10.4 | 0.00 | 0.00 | 0.00 | 40 | 1007.2 |
| 20260507171547 | 71 | 275 | 5.2 | 11.3 | 0.00 | 0.00 | 0.00 | 39 | 1007.3 |
| 20260507171028 | 71 | 293 | 4.3 | 11.3 | 0.00 | 0.00 | 0.00 | 40 | 1007.2 |
| 20260507170528 | 71 | 315 | 7.0 | 11.3 | 0.00 | 0.00 | 0.00 | 39 | 1007.2 |
| 20260507170105 | 72 | 291 | 6.1 | 9.6 | 0.00 | 0.00 | 0.00 | 39 | 1007.4 |
| 20260507165527 | 72 | 271 | 6.1 | 14.8 | 0.00 | 0.00 | 0.00 | 38 | 1007.2 |
| 20260507165027 | 72 | 250 | 4.3 | 14.8 | 0.00 | 0.00 | 0.00 | 38 | 1007.3 |
| 20260507164548 | 72 | 292 | 7.0 | 14.8 | 0.00 | 0.00 | 0.00 | 38 | 1007.4 |
| 20260507164028 | 72 | 263 | 6.1 | 12.2 | 0.00 | 0.00 | 0.00 | 40 | 1007.3 |
| 20260507163528 | 72 | 293 | 7.0 | 12.2 | 0.00 | 0.00 | 0.00 | 39 | 1007.3 |
| 20260507163048 | 71 | 286 | 3.5 | 7.8 | 0.00 | 0.00 | 0.00 | 40 | 1007.3 |
| 20260507162527 | 70 | 329 | 5.2 | 8.7 | 0.00 | 0.00 | 0.00 | 41 | 1007.4 |
| 20260507162030 | 70 | 346 | 3.5 | 9.6 | 0.00 | 0.00 | 0.00 | 42 | 1007.4 |
| 20260507161602 | 70 | 0 | 3.5 | 10.4 | 0.00 | 0.00 | 0.00 | 41 | 1007.4 |
| 20260507161028 | 70 | 291 | 6.1 | 10.4 | 0.00 | 0.00 | 0.00 | 40 | 1007.4 |
| 20260507160528 | 70 | 301 | 4.3 | 8.7 | 0.00 | 0.00 | 0.00 | 40 | 1007.4 |
| 20260507160041 | 70 | 298 | 5.2 | 12.2 | 0.00 | 0.00 | 0.00 | 40 | 1007.4 |
| 20260507155528 | 71 | 295 | 4.3 | 12.2 | 0.00 | 0.00 | 0.00 | 40 | 1007.4 |
| 20260507155028 | 71 | 317 | 3.5 | 11.3 | 0.00 | 0.00 | 0.00 | 38 | 1007.4 |
| 20260507154542 | 72 | 275 | 6.1 | 11.3 | 0.00 | 0.00 | 0.00 | 37 | 1007.5 |
| 20260507154027 | 72 | 302 | 4.3 | 11.3 | 0.00 | 0.00 | 0.00 | 38 | 1007.5 |
| 20260507153528 | 72 | 343 | 7.0 | 11.3 | 0.00 | 0.00 | 0.00 | 38 | 1007.6 |
| 20260507153054 | 73 | 273 | 6.1 | 13.9 | 0.00 | 0.00 | 0.00 | 37 | 1007.6 |
| 20260507152530 | 73 | 285 | 5.2 | 13.9 | 0.00 | 0.00 | 0.00 | 37 | 1007.7 |
| 20260507152029 | 73 | 269 | 7.0 | 13.9 | 0.00 | 0.00 | 0.00 | 37 | 1007.7 |
| 20260507151539 | 73 | 234 | 7.0 | 14.8 | 0.00 | 0.00 | 0.00 | 36 | 1007.8 |
| 20260507151028 | 73 | 246 | 8.7 | 14.8 | 0.00 | 0.00 | 0.00 | 36 | 1007.7 |
| 20260507150528 | 73 | 289 | 6.1 | 13.0 | 0.00 | 0.00 | 0.00 | 36 | 1007.7 |
| 20260507150047 | 73 | 240 | 4.3 | 13.9 | 0.00 | 0.00 | 0.00 | 35 | 1007.8 |
| 20260507145527 | 74 | 208 | 6.1 | 16.5 | 0.00 | 0.00 | 0.00 | 34 | 1007.9 |
| 20260507145028 | 74 | 217 | 8.7 | 16.5 | 0.00 | 0.00 | 0.00 | 34 | 1007.9 |
| 20260507144546 | 73 | 236 | 5.2 | 12.2 | 0.00 | 0.00 | 0.00 | 35 | 1007.8 |
| 20260507144028 | 73 | 236 | 6.1 | 13.9 | 0.00 | 0.00 | 0.00 | 35 | 1007.9 |
| 20260507143528 | 73 | 243 | 8.7 | 13.9 | 0.00 | 0.00 | 0.00 | 34 | 1008.0 |
| 20260507143048 | 73 | 239 | 3.5 | 16.5 | 0.00 | 0.00 | 0.00 | 35 | 1008.0 |
| 20260507142528 | 72 | 216 | 7.0 | 16.5 | 0.00 | 0.00 | 0.00 | 35 | 1008.0 |
| 20260507142029 | 72 | 202 | 5.2 | 9.6 | 0.00 | 0.00 | 0.00 | 37 | 1008.0 |
| 20260507141602 | 72 | 214 | 4.3 | 9.6 | 0.00 | 0.00 | 0.00 | 36 | 1008.1 |
| 20260507141027 | 73 | 199 | 4.3 | 13.0 | 0.00 | 0.00 | 0.00 | 35 | 1008.2 |
| 20260507140527 | 72 | 169 | 4.3 | 13.0 | 0.00 | 0.00 | 0.00 | 35 | 1008.1 |
| 20260507140043 | 73 | 254 | 4.3 | 11.3 | 0.00 | 0.00 | 0.00 | 35 | 1008.1 |
| 20260507135527 | 72 | 261 | 3.5 | 13.0 | 0.00 | 0.00 | 0.00 | 36 | 1008.2 |
| 20260507135027 | 72 | 259 | 5.2 | 13.0 | 0.00 | 0.00 | 0.00 | 36 | 1008.2 |
| 20260507134540 | 73 | 238 | 4.3 | 11.3 | 0.00 | 0.00 | 0.00 | 38 | 1008.3 |
| 20260507134024 | 72 | 223 | 6.1 | 14.8 | 0.00 | 0.00 | 0.00 | 38 | 1008.4 |
| 20260507133528 | 72 | 235 | 7.0 | 17.4 | 0.00 | 0.00 | 0.00 | 38 | 1008.4 |
| 20260507133037 | 72 | 235 | 9.6 | 17.4 | 0.00 | 0.00 | 0.00 | 38 | 1008.5 |
| 20260507132529 | 71 | 271 | 7.8 | 17.4 | 0.00 | 0.00 | 0.00 | 39 | 1008.4 |
| 20260507132027 | 71 | 216 | 7.8 | 15.6 | 0.00 | 0.00 | 0.00 | 39 | 1008.5 |
| 20260507131540 | 72 | 238 | 7.8 | 16.5 | 0.00 | 0.00 | 0.00 | 37 | 1008.5 |
| 20260507131030 | 71 | 243 | 7.8 | 16.5 | 0.00 | 0.00 | 0.00 | 38 | 1008.4 |
| 20260507130529 | 72 | 267 | 6.1 | 15.6 | 0.00 | 0.00 | 0.00 | 37 | 1008.3 |
| 20260507130039 | 72 | 336 | 5.2 | 11.3 | 0.00 | 0.00 | 0.00 | 35 | 1008.4 |
| 20260507125529 | 72 | 238 | 4.3 | 11.3 | 0.00 | 0.00 | 0.00 | 33 | 1008.4 |
| 20260507125029 | 73 | 271 | 1.7 | 9.6 | 0.00 | 0.00 | 0.00 | 34 | 1008.5 |
| 20260507124543 | 74 | 0 | 0.9 | 10.4 | 0.00 | 0.00 | 0.00 | 31 | 1008.4 |
| 20260507124027 | 73 | 183 | 4.3 | 12.2 | 0.00 | 0.00 | 0.00 | 33 | 1008.6 |
| 20260507123527 | 73 | 265 | 4.3 | 13.9 | 0.00 | 0.00 | 0.00 | 34 | 1008.7 |
| 20260507123042 | 73 | 204 | 6.1 | 13.9 | 0.00 | 0.00 | 0.00 | 34 | 1008.8 |
| 20260507122527 | 71 | 184 | 2.6 | 10.4 | 0.00 | 0.00 | 0.00 | 35 | 1008.8 |
| 20260507122028 | 71 | 0 | 0.9 | 6.1 | 0.00 | 0.00 | 0.00 | 36 | 1009.0 |
| 20260507121542 | 70 | 217 | 1.7 | 6.1 | 0.00 | 0.00 | 0.00 | 36 | 1009.1 |
| 20260507121028 | 70 | 159 | 1.7 | 5.2 | 0.00 | 0.00 | 0.00 | 38 | 1009.2 |
| 20260507120527 | 69 | 163 | 0.0 | 9.6 | 0.00 | 0.00 | 0.00 | 37 | 1009.3 |
| 20260507120044 | 69 | 266 | 0.9 | 9.6 | 0.00 | 0.00 | 0.00 | 37 | 1009.4 |
| 20260507115527 | 69 | 266 | 4.3 | 9.6 | 0.00 | 0.00 | 0.00 | 37 | 1009.5 |
| 20260507115027 | 70 | 255 | 1.7 | 4.3 | 0.00 | 0.00 | 0.00 | 37 | 1009.5 |
| 20260507114544 | 70 | 0 | 0.0 | 5.2 | 0.00 | 0.00 | 0.00 | 34 | 1009.6 |
| 20260507114025 | 71 | 246 | 0.0 | 7.0 | 0.00 | 0.00 | 0.00 | 33 | 1009.5 |
| 20260507113527 | 71 | 0 | 2.6 | 9.6 | 0.00 | 0.00 | 0.00 | 35 | 1009.7 |
| 20260507113049 | 71 | 195 | 5.2 | 10.4 | 0.00 | 0.00 | 0.00 | 37 | 1009.6 |
| 20260507112528 | 70 | 196 | 5.2 | 10.4 | 0.00 | 0.00 | 0.00 | 36 | 1009.6 |
| 20260507112027 | 71 | 177 | 4.3 | 8.7 | 0.00 | 0.00 | 0.00 | 36 | 1009.6 |
| 20260507111539 | 70 | 246 | 0.9 | 7.0 | 0.00 | 0.00 | 0.00 | 41 | 1009.7 |
| 20260507111024 | 71 | 158 | 0.9 | 7.0 | 0.00 | 0.00 | 0.00 | 41 | 1009.7 |
| 20260507110529 | 70 | 169 | 1.7 | 7.0 | 0.00 | 0.00 | 0.00 | 41 | 1009.7 |
| 20260507110047 | 69 | 227 | 0.9 | 5.2 | 0.00 | 0.00 | 0.00 | 44 | 1009.7 |
| 20260507105527 | 69 | 0 | 0.9 | 5.2 | 0.00 | 0.00 | 0.00 | 42 | 1009.7 |
| 20260507105027 | 69 | 165 | 2.6 | 4.3 | 0.00 | 0.00 | 0.00 | 43 | 1009.8 |
| 20260507104540 | 68 | 298 | 0.9 | 7.0 | 0.00 | 0.00 | 0.00 | 44 | 1009.8 |
| 20260507104028 | 69 | 0 | 2.6 | 9.6 | 0.00 | 0.00 | 0.00 | 45 | 1009.8 |
| 20260507103527 | 68 | 178 | 5.2 | 9.6 | 0.00 | 0.00 | 0.00 | 46 | 1009.8 |
| 20260507103044 | 68 | 242 | 2.6 | 7.0 | 0.00 | 0.00 | 0.00 | 46 | 1009.8 |
| 20260507102528 | 68 | 218 | 2.6 | 7.0 | 0.00 | 0.00 | 0.00 | 46 | 1009.9 |
| 20260507102028 | 68 | 144 | 4.3 | 7.0 | 0.00 | 0.00 | 0.00 | 48 | 1009.9 |
| 20260507101542 | 67 | 117 | 1.7 | 6.1 | 0.00 | 0.00 | 0.00 | 51 | 1009.8 |
| 20260507101026 | 66 | 55 | 1.7 | 8.7 | 0.00 | 0.00 | 0.00 | 52 | 1009.8 |
| 20260507100527 | 66 | 86 | 2.6 | 8.7 | 0.00 | 0.00 | 0.00 | 52 | 1009.8 |
| 20260507100043 | 66 | 86 | 0.9 | 6.1 | 0.00 | 0.00 | 0.00 | 51 | 1009.8 |
| 20260507095528 | 66 | 114 | 0.9 | 7.8 | 0.00 | 0.00 | 0.00 | 53 | 1009.8 |
| 20260507095028 | 65 | 154 | 1.7 | 7.8 | 0.00 | 0.00 | 0.00 | 53 | 1009.7 |
| 20260507094539 | 65 | 84 | 1.7 | 5.2 | 0.00 | 0.00 | 0.00 | 54 | 1009.8 |
| 20260507094028 | 65 | 0 | 0.9 | 6.1 | 0.00 | 0.00 | 0.00 | 55 | 1009.8 |
| 20260507093527 | 64 | 76 | 0.9 | 7.0 | 0.00 | 0.00 | 0.00 | 57 | 1009.8 |
| 20260507093039 | 64 | 107 | 2.6 | 7.8 | 0.00 | 0.00 | 0.00 | 56 | 1010.0 |
| 20260507092527 | 63 | 150 | 3.5 | 7.8 | 0.00 | 0.00 | 0.00 | 57 | 1010.0 |
| 20260507092030 | 63 | 92 | 2.6 | 7.8 | 0.00 | 0.00 | 0.00 | 57 | 1010.0 |
| 20260507091546 | 63 | 85 | 2.6 | 7.8 | 0.00 | 0.00 | 0.00 | 56 | 1010.0 |